Regional Weather Roundup
Issued by NWS

Home | Current Version | Previous Version | Graphics & Text | Print | Product List | Glossary On
Versions: 1 2 3 4 5 6 7 8 9 10 11 12 13 14 15 16 17 18 19 20 21 22 23 24 25 26 27 28 29 30 31 32 33 34 35 36 37 38 39 40 41 42 43 44 45 46 47 48 49 50
000
ASUS43 KDTX 300301
RWRMI
MICHIGAN HOURLY REGIONAL WEATHER ROUNDUP
NATIONAL WEATHER SERVICE DETROIT/PONTIAC MI
1100 PM EDT MON JUN 29 2015

NOTE: "FAIR" INDICATES FEW OR NO CLOUDS BELOW 12,000 FEET WITH NO
SIGNIFICANT WEATHER AND/OR OBSTRUCTION TO VISIBILITY.

MIZ047>049-052>055-059>063-066>070-074>076-081>083-300400-
SOUTHEAST LOWER MICHIGAN

CITY           SKY/WX    TMP DP  RH WIND       PRES   REMARKS
ADRIAN         CLOUDY    63  59  87 S5        29.85S
ALMA           CLEAR     58  56  92 CALM      29.85R
ANN ARBOR      PTCLDY    63  56  78 CALM      29.85R
BAD AXE        CLEAR     58  53  83 CALM      29.87S
CARO           CLEAR     57  56  95 CALM      29.86R
DETROIT CITY   CLEAR     65  57  75 CALM      29.86R
DETROIT        CLOUDY    66  57  72 SE3       29.86R
FLINT          PTCLDY    63  55  75 S5        29.86R
GROSSE ILE       N/A     66  59  77 E3        29.84R
HILLSDALE      CLOUDY    63  62  97 CALM      29.86R
HOWELL         CLOUDY    62  57  85 CALM      29.86R

CITY           SKY/WX    TMP DP  RH WIND       PRES   REMARKS
JACKSON        CLOUDY    64  58  80 CALM      29.85R
LAMBERTVILLE   CLOUDY    65  58  78 CALM      29.85R
LANSING        CLEAR     63  55  75 S3        29.85R
LAPEER         FAIR      60  54  79 S3        29.87R
MASON          CLOUDY    61  57  87 CALM      29.86S
MONROE         CLOUDY    65  58  78 SE3       29.84R
MT. CLEMENS    PTCLDY    62  58  86 SE2       29.85R HAZE
PONTIAC        MOCLDY    65  56  72 S3        29.86R
PORT HOPE        N/A     65  56  72 CALM      29.85R
PORT HURON     CLEAR     57  55  94 CALM      29.88R
TRI CITIES     CLEAR     67  57  70 S6        29.86R
MIDLAND        FAIR      61  58  90 CALM      29.84R
TROY           CLOUDY    67  56  67 CALM      29.88R
SAGINAW HB     CLEAR     61  55  82 SE3       29.85R
$$
MIZ043>046-050>051-056>058-064>065-071>073-077>080-300400-
SOUTHWEST LOWER MICHIGAN

CITY           SKY/WX    TMP DP  RH WIND       PRES   REMARKS
BATTLE CREEK   CLOUDY    66  57  72 S5        29.85S
BENTON HARBOR  CLEAR     62  59  90 E5        29.81S
BIG RAPIDS     PTCLDY    62  57  83 CALM      29.82S
COLDWATER      CLOUDY    62  57  84 CALM      29.85R
FREMONT        FAIR      61  59  94 CALM      29.81S
HOLLAND        CLEAR     62  58  86 SE6       29.82S
GRAND RAPIDS   PTCLDY    63  57  81 SE5       29.83S
IONIA          FAIR      64  57  76 S6        29.84R
KALAMAZOO      CLOUDY    65  58  78 S6        29.84S
LUDINGTON      CLEAR     64  59  85 CALM      29.81R
MARSHALL       CLOUDY    64  58  81 CALM      29.85R
MOUNT PLEASANT CLEAR     60  56  87 E3        29.83S
MUSKEGON       MOCLDY    65  61  87 S3        29.82R
SOUTH HAVEN    CLEAR     61  58  88 SE3       29.82R
$$
MIZ016>042-300400-
NORTHERN LOWER MICHIGAN

CITY           SKY/WX    TMP DP  RH WIND       PRES   REMARKS
ALPENA         CLOUDY    70  56  61 S9        29.82R
BEAVER ISLAND  PTCLDY    64  58  81 SW6       29.80R
BELLAIRE       CLOUDY    66  56  71 CALM      29.80F
CADILLAC       PTCLDY    60  55  84 E6        29.82S
CHARLEVOIX     MOCLDY    67  56  68 SE3       29.83S
FRANKFORT      PTCLDY    67  57  71 CALM      29.79F
GAYLORD        CLOUDY    67  57  70 S3        29.84R
GRAYLING       PTCLDY    58  56  93 CALM      29.85S
HARBOR SPRINGS PTCLDY    62  55  77 CALM      29.82S
HOUGHTON LAKE  CLEAR     62  56  80 CALM      29.85R
MANISTEE       PTCLDY    63  55  77 CALM      29.80S
OSCODA         CLEAR     64  56  76 SW5       29.84R
PELLSTON       MOCLDY    63  52  67 CALM      29.81S
ROGERS CITY    CLOUDY    66  58  76 W5        29.82R
TRAVERSE CITY  PTCLDY    63  61  93 CALM      29.78S
$$
MIZ007>008-015-300400-
EASTERN UPPER MICHIGAN

CITY           SKY/WX    TMP DP  RH WIND       PRES   REMARKS
KINROSS        PTCLDY    64  52  63 SW6       29.80S
MACKINAC ISLAN CLOUDY    64  54  69 W5        29.80F
NEWBERRY       PTCLDY    59  53  79 S6        29.78F
S. S. MARIE    PTCLDY    66  49  54 S5        29.79R
MUNISING         N/A     67  61  81 W7        29.75R
$$
MIZ004>006-011>014-085-300400-
CENTRAL UPPER MICHIGAN

CITY           SKY/WX    TMP DP  RH WIND       PRES   REMARKS
MANISTIQUE     CLOUDY    59  56  91 S8        29.77S
ESCANABA       CLOUDY    64  55  72 W7        29.75R
MENOMINEE      CLOUDY    64  61  88 NE3       29.75S
SAWYER-GWINN   RAIN      60  58  94 CALM      29.78S
$$
MIZ001>003-009>011-084-300400-
WESTERN UPPER MICHIGAN

CITY           SKY/WX    TMP DP  RH WIND       PRES   REMARKS
IRON MOUNTAIN  CLOUDY    61  59  93 NW3       29.77R
HOUGHTON       CLOUDY    59  57  93 N9        29.79R
COPPER HARBOR    N/A     52  50  93 N14       29.78R
IRONWOOD       PTCLDY    61  61 100 CALM      29.78
$$

ABBREVIATIONS USED IN REMARKS
   TC - TEMPERATURE IN CELSIUS
  WCI - WIND CHILL INDEX
   HX - HEAT INDEX
  VSB - VISIBILITY




USA.gov is the U.S. government's official web portal to all federal, state and local government web resources and services.